Location: *
(50.8512°N, 5.6907°E)
Time: 00:19:38
(UTC+00:00)

Cosmos 921 Rocket - Pass Details

Date: 09 April 2020
Orbit: 572 x 632 km, 75.8° (Epoch: 30 May)

Event Time Altitude Azimuth Distance (km) Brightness Sun altitude
Rises 18:58:19 0° 341° (NNW) 2,793 7.0 -6.1°
Reaches altitude 10° 19:00:34 10° 346° (NNW) 1,890 6.1 -6.4°
Maximum altitude 19:04:41 54° 65° (ENE) 700 3.1 -7.0°
Drops below altitude 10° 19:08:47 10° 143° (SE) 1,886 5.0 -7.6°
Enters shadow 19:09:46 - 146° (SE) 2,272 5.5 -7.7°
